Location: Amon Carter Post Office
(32.8281°N, 97.0484°W)
Time: 10:37:31
(UTC+00:00)

SL-4 R/B - Pass Details

Date: 12 July 2022
Orbit: 425 x 653 km, 51.6° (Epoch: 07 August)

Event Time Altitude Azimuth Distance (km) Brightness Sun altitude
Rises 10:23:02 0° 313° (NW) 2,580 5.3 -12.6°
Reaches altitude 10° 10:25:09 10° 312° (NW) 1,731 4.4 -12.3°
Maximum altitude 10:29:05 80° 225° (SW) 552 1.9 -11.6°
Drops below altitude 10° 10:33:20 10° 139° (SE) 1,867 4.8 -10.9°
Sets 10:35:41 0° 138° (SE) 2,802 5.7 -10.5°
